Regional Weather Roundup
Issued by NWS Sterling, VA

Home | Current Version | Previous Version | Graphics & Text | Print | Product List | Glossary On
Versions: 1 2 3 4 5 6 7 8 9 10 11 12 13 14 15 16 17 18 19 20 21 22 23 24 25 26 27 28 29 30 31 32 33 34 35 36 37 38 39 40 41 42 43 44 45 46 47 48 49 50
188
ASUS41 KLWX 060610
RWRLWX

REGIONAL WEATHER ROUNDUP
NATIONAL WEATHER SERVICE BALTIMORE MD/WASHINGTON DC
100 AM EST SAT FEB 06 2016

Note: "FAIR" indicates few or no clouds below 12,000 feet
with no significant weather and/or obstructions to visibility.
 TC=TEMPERATURE CELSIUS

 * =Non NWS site. Station does not report precipitation (e.g. rain,
    snow, etc.), thunder, or fog.

DCZ001-MDZ009-015-VAZ040>042-051-053>054-060700-
WASHINGTON METRO

CITY           SKY/WX    TMP DP  RH WIND       PRES   REMARKS
WASHINGTON NAT FAIR      35  17  47 NW5       30.41F
DULLES         FAIR      25  19  78 CALM      30.40R
ANDREWS AFB    PTCLDY    25  20  82 CALM      30.39S
FT BELVOIR     FAIR      26  21  82 NW1       30.42R
QUANTICO       FAIR      30  22  72 W6        30.43R
COLLEGE PARK*  FAIR      28  23  80 CALM      30.41S
LEESBURG*      FAIR      30  27  86 CALM      30.41R
MANASSAS*      FAIR      23  21  93 CALM      30.42R
GAITHERSBURG*  CLOUDY    27  16  63 CALM      30.42S

$$

MDZ006>007-011-014-060700-
BALTIMORE METRO

CITY           SKY/WX    TMP DP  RH WIND       PRES   REMARKS
BWI AIRPORT    PTCLDY    28  19  69 W5        30.39F
MD SCIENCE CTR   N/A     34  17  50 MISG      30.39F
MARTIN STATE   CLOUDY    30  23  74 CALM      30.41F
ANNAPOLIS      CLOUDY    31  22  69 NW3       30.39F
FORT MEADE*    CLEAR     25  23  93 CALM      30.42S

$$

MDZ012-015-019>023-060700-
MARYLAND EASTERN SHORE

CITY           SKY/WX    TMP DP  RH WIND       PRES   REMARKS
OCEAN CITY     CLEAR     30  23  75 NW3       30.39R
SALISBURY      CLOUDY    29  24  82 CALM      30.39S
BAY BRIDGE AP*   N/A     34  21  60 CALM      30.40F
CAMBRIDGE*     PTCLDY    32  23  69 NW5       30.39S
EASTON*        PTCLDY    32  25  77 CALM      30.43S

$$

MDZ017>025-060700-
SOUTHERN MARYLAND

CITY           SKY/WX    TMP DP  RH WIND       PRES   REMARKS
PATUXENT RIVER CLOUDY    32  20  61 N5        30.40S
ST INIGOES     PTCLDY    29  25  85 CALM      30.40S
LEONARDTOWN*   PTCLDY    28  21  74 CALM      30.42S

$$

MDZ003>005-060700-
NORTH CENTRAL MARYLAND

CITY           SKY/WX    TMP DP  RH WIND       PRES   REMARKS
FREDERICK*     CLOUDY    28  23  80 CALM      30.42F
HAGERSTOWN APT CLOUDY    28  16  60 CALM      30.37S
WESTMINSTER*   CLOUDY    28  21  74 CALM      30.36S

$$

MDZ501>502-060700-
WESTERN MARYLAND

CITY           SKY/WX    TMP DP  RH WIND       PRES   REMARKS
OAKLAND*       PTCLDY    21  14  73 SW6       30.26F
CUMBERLAND*    PTCLDY    27  21  80 SW5       30.42S

$$

VAZ025>031-060700-
SHENANDOAH VALLEY

CITY           SKY/WX    TMP DP  RH WIND       PRES   REMARKS
WINCHESTER*    FAIR      28  19  69 CALM      30.38S
FRONT ROYAL*   FAIR      28  18  64 CALM      30.37S
LURAY*         FAIR      27  19  74 SE3       30.38S
NEW MARKET*    FAIR      22  19  88 CALM      30.38S
STAUNTON*      FAIR      29  21  73 CALM      30.38F
WAYNESBORO*    FAIR      24  15  67 CALM      30.35F

$$

WVZ021-048>050-054>055-060700-
EASTERN WEST VIRGINIA PANHANDLE

CITY           SKY/WX    TMP DP  RH WIND       PRES   REMARKS
MARTINSBURG    FAIR      23  16  74 SE6       30.39S
PETERSBURG*    FAIR      24  19  82 CALM      30.38F

$$

VAZ036>039-050-060700-
CENTRAL FOOTHILLS

CITY           SKY/WX    TMP DP  RH WIND       PRES   REMARKS
CHARLOTTESVILL FAIR      30  16  56 W6        30.38S
CULPEPER*      FAIR      22  20  90 CALM      30.41S
ORANGE*        FAIR      27  23  86 CALM      30.42S
GORDONSVILLE*  FAIR      24  22  93 CALM      30.40S
WARRENTON*     FAIR      23  21  93 CALM      30.41R

$$

VAZ055>057-060700-
NORTH AND CENTRAL PIEDMONT

CITY           SKY/WX    TMP DP  RH WIND       PRES   REMARKS
FREDERICKSBRG* FAIR      26  22  85 CALM      30.42S
STAFFORD*      FAIR      23  20  90 CALM      30.46R

$$

NCZ024-NYZ072-PAZ021-071-VAZ022-071-060700-
OTHER REGIONAL OBSERVATIONS

CITY           SKY/WX    TMP DP  RH WIND       PRES   REMARKS
NEW YORK CITY  CLEAR     32  15  49 NW10G18   30.34S WCI  24
PHILADELPHIA   PTCLDY    31  18  58 NW5       30.39R
PITTSBURGH     MOCLDY    26  16  65 S5        30.31F
ROANOKE        FAIR      26  18  71 N5        30.40S
RICHMOND       FAIR      27  22  81 CALM      30.41S
RALEIGH        CLEAR     29  25  85 CALM      30.41S

$$

ANZ530>537-060700-
MARINE OBSERVATIONS

STATION/POSITION TIME  TEMP    WIND        PRES
                       AIR SEA DIR/SP/G
                 (UTC) (F)     (DEG/KT/KT) (MB)
THOMAS PT LIGHT  0600   34 39  330/  6/  7 1030.2F
BALT KEY BRIDGE  0500   35     270/  8/  9 1029.6R
COVE POINT       0500   36     360/ 12/ 15 1030.1R
LEWISETTA        0500   37 43  360/  7/ 11 1029.3S
SOLOMONS ISLAND  0500   34 41  350/  3/  5   N/A

$$





USA.gov is the U.S. government's official web portal to all federal, state and local government web resources and services.